This demonstration page uses our WeatherBlox Daily Observations layout. Learn more.

Left ArrowRight Arrow

31.84235, -102.49876

Hourly Observations for May 23, 2017

Temp ( °F °C ) Dew Point ( °F °C ) Humidity (%) Winds ( mph kmh ) Pressure ( in mb ) Visibility ( mi km ) Precip ( " mm )
12:53 am 00:53 Clear 61 16.1 55 12.8 81 81 SSW 8 13 29.86 1011 10 16 0.00 0.00
1:53 am 01:53 Clear 59 15 55 12.8 87 87 WSW 6 9 29.85 1011 10 16 0.00 0.00
2:53 am 02:53 Clear 59 15 53 11.7 81 81 Calm 29.85 1011 10 16 0.00 0.00
3:53 am 03:53 Clear 57 13.9 54 12.2 90 90 N 10 17 29.85 1011 10 16 0.00 0.00
4:53 am 04:53 Clear 58 14.4 54 12.2 87 87 N 13 20 29.88 1012 10 16 0.00 0.00
5:13 am 05:13 Mostly Cloudy 60 15.6 54 12.2 80 80 N 13 20 29.94 1014 10 16 0.00 0.00
5:53 am 05:53 Cloudy 61 16.1 55 12.8 81 81 N 13 20 29.90 1013 10 16 0.00 0.00
6:21 am 06:21 Cloudy 61 16.1 58 14.4 90 90 NNE 13 20 29.91 1013 10 16 0.00 0.00
6:45 am 06:45 Cloudy 61 16.1 58 14.4 90 90 NNE 15 24 29.97 1015 10 16 0.00 0.00
6:53 am 06:53 Cloudy 61 16.1 59 15 93 93 NNE 16 26 29.91 1013 9 14 0.00 0.00
7:13 am 07:13 Cloudy 62 16.7 59 15 90 90 NNE 13 20 29.94 1014 10 16 0.00 0.00
7:28 am 07:28 Mostly Cloudy 62 16.7 59 15 90 90 NE 15 24 29.94 1014 10 16 0.00 0.00
7:36 am 07:36 Partly Cloudy 62 16.7 59 15 90 90 NE 14 22 29.94 1014 10 16 0.00 0.00
7:53 am 07:53 Partly Cloudy 63 17.2 56 13.3 78 78 NE 15 24 29.93 1014 10 16 0.00 0.00
8:53 am 08:53 Cloudy 63 17.2 50 10 63 63 NE 20 31 29.96 1015 10 16 0.00 0.00
9:53 am 09:53 Mostly Sunny 64 17.8 51 10.6 63 63 NNE 21 33 30.00 1016 10 16 0.00 0.00
10:36 am 10:36 Cloudy 62 16.7 51 10.6 67 67 NNE 17 28 30.03 1017 10 16 0.00 0.00
10:48 am 10:48 Cloudy 63 17 50 10 64 64 NNE 18 30 30.00 1016 10 16 0.00 0.00
10:53 am 10:53 Cloudy 63 17.2 50 10 63 63 NNE 18 30 30.00 1016 10 16 0.00 0.00
11:43 am 11:43 Mostly Cloudy 61 16.1 49 9.4 65 65 NNE 20 31 30.03 1017 10 16 0.00 0.00
11:53 am 11:53 Cloudy 61 16.1 48 8.9 63 63 NE 22 35 30.02 1017 10 16 0.00 0.00
12:46 pm 12:46 Cloudy 62 16.7 47 8.3 58 58 NNE 20 31 30.03 1017 10 16 0.00 0.00
12:53 pm 12:53 Cloudy 63 17.2 46 7.8 54 54 NE 21 33 30.03 1017 10 16 0.00 0.00
1:53 pm 13:53 Cloudy 66 18.9 45 7.2 47 47 NNE 17 28 30.03 1017 10 16 0.00 0.00
2:53 pm 14:53 Cloudy 68 20 44 6.7 42 42 NNE 21 33 30.01 1016 10 16 0.00 0.00
3:53 pm 15:53 Partly Cloudy 68 20 41 5 38 38 NNE 21 33 30.01 1016 10 16 0.00 0.00
4:53 pm 16:53 Sunny 69 20.6 39 3.9 33 33 NNE 15 24 29.99 1016 10 16 0.00 0.00
5:53 pm 17:53 Sunny 69 20.6 39 3.9 33 33 NNE 12 19 29.97 1015 10 16 0.00 0.00
6:53 pm 18:53 Sunny 68 20 34 1.1 28 28 NNE 9 15 29.97 1015 10 16 0.00 0.00
7:53 pm 19:53 Sunny 67 19.4 33 0.6 28 28 VRB 7 11 29.96 1015 10 16 0.00 0.00
8:53 pm 20:53 Clear 63 17.2 38 3.3 40 40 Calm 29.97 1015 10 16 0.00 0.00
9:53 pm 21:53 Clear 60 15.6 44 6.7 56 56 Calm 29.96 1014 10 16 0.00 0.00
10:53 pm 22:53 Clear 61 16.1 42 5.6 50 50 SSW 3 6 29.96 1015 10 16 0.00 0.00
11:53 pm 23:53 Clear 58 14.4 43 6.1 58 58 WSW 3 6 29.97 1015 10 16 0.00 0.00

Powered by AerisWeather